Location: Four Corners
(38.2757°N, 122.4608°W)
Time: 17:07:23
(UTC+00:00)

Okean 1 - Pass Details

Date: 08 December 2019
Orbit: 539 x 555 km, 82.5° (Epoch: 19 January)

Event Time Altitude Azimuth Distance (km) Brightness Sun altitude
Rises 02:55:51 0° 191° (S) 2,703 7.1 -24.1°
Reaches altitude 10° 02:58:01 10° 193° (SSW) 1,812 6.2 -24.6°
Enters shadow 03:01:17 56° 219° (SW) 655 3.8 -25.2°
